User: anonymous   Login
Location: *
(51.1248°S, 108.4023°W)
Time: 17:05:57
(UTC+00:00)
Language:

Meteor 2-6 Rocket - Orbit

View from above orbital plane
View from above orbital plane
View from above satellite
View from above satellite

Ground track
Ground track

The orbit data is extracted from the following two-line orbital elements,

1 11963U 80073B   21269.66879624 -.00000180  00000-0 -10698-3 0  9994
2 11963  81.2770  49.8484 0074978 335.0327  24.7223 14.09736801110407
Epoch (UTC): 26 September 2021 16:03:03
Eccentricity: 0.0074978
inclination: 81.2770°
perigee height: 806 km
apogee height: 914 km
right ascension of ascending node: 49.8484°
argument of perigee: 335.0327°
revolutions per day: 14.09736801
mean anomaly at epoch: 24.7223°
orbit number at epoch: 11040

The dashed part of the orbit path shows where the satellite is in the earth's shadow,  

DLR